SV7RNH Weather Reports


Display with metric or nautical units.
time (UTC)temp
F
wind
direction
speed
MPH
gust
MPH
rain 1hr
in
rain 24hr
in
rain mn
in
humidity
%
barometer
mb
20260901014504 79 0 0.0 3.0 0.00 0.00 0.00 56 1015.1
20260901014003 78 0 0.0 4.0 0.00 0.00 0.00 56 1015.2
20260901013504 79 0 0.0 4.0 0.00 0.00 0.00 56 1015.1
20260901013003 79 40 2.0 5.0 0.00 0.00 0.00 56 1015.2
20260901012503 79 35 1.0 5.0 0.00 0.00 0.00 56 1015.2
20260901012004 79 31 1.0 4.0 0.00 0.00 0.00 56 1015.2
20260901011503 79 0 0.0 4.0 0.00 0.00 0.00 56 1015.3
20260901011004 79 0 0.0 4.0 0.00 0.00 0.00 56 1015.3
20260901010504 79 338 2.0 4.0 0.00 0.00 0.00 56 1015.3
20260901010004 79 350 2.0 3.0 0.00 0.00 0.00 56 1015.5
20260901005503 79 23 2.0 3.0 0.00 0.00 0.00 56 1015.5
20260901005004 79 0 0.0 4.0 0.00 0.00 0.00 56 1015.5
20260901004504 79 0 0.0 4.0 0.00 0.00 0.00 56 1015.3
20260901004003 79 0 0.0 2.0 0.00 0.00 0.00 56 1015.6
20260901003503 79 0 0.0 3.0 0.00 0.00 0.00 55 1015.5
20260901003004 79 0 0.0 3.0 0.00 0.00 0.00 55 1015.3
20260901002504 79 0 0.0 2.0 0.00 0.00 0.00 55 1015.5
20260901002004 79 0 0.0 2.0 0.00 0.00 0.00 55 1015.4
20260901001503 79 0 0.0 2.0 0.00 0.00 0.00 55 1015.5
20260901001004 79 0 0.0 2.0 0.00 0.00 0.00 55 1015.4
20260901000503 79 0 0.0 2.0 0.00 0.00 0.00 55 1015.3
20260901000003 79 0 0.0 2.0 0.00 0.00 0.00 55 1015.1
20260831235503 79 0 0.0 4.0 0.00 0.00 0.00 54 1015.1
20260831235004 79 0 0.0 4.0 0.00 0.00 0.00 54 1015.0
20260831234503 79 52 1.0 4.0 0.00 0.00 0.00 54 1015.1
20260831234003 79 0 0.0 4.0 0.00 0.00 0.00 54 1015.3
20260831233503 80 27 1.0 3.0 0.00 0.00 0.00 54 1015.3
20260831233004 80 0 0.0 3.0 0.00 0.00 0.00 54 1015.3
20260831232503 80 0 0.0 3.0 0.00 0.00 0.00 54 1015.3
20260831232004 80 0 0.0 4.0 0.00 0.00 0.00 54 1015.5
20260831231503 80 37 2.0 4.0 0.00 0.00 0.00 53 1015.4
20260831231003 80 0 0.0 2.0 0.00 0.00 0.00 54 1015.3
20260831230504 80 0 0.0 4.0 0.00 0.00 0.00 54 1015.5
20260831230003 80 60 1.0 4.0 0.00 0.00 0.00 54 1015.4
20260831225504 80 48 1.0 4.0 0.00 0.00 0.00 53 1015.5
20260831225003 80 33 1.0 4.0 0.00 0.00 0.00 53 1015.5
20260831224503 80 35 2.0 3.0 0.00 0.00 0.00 53 1015.6
20260831224004 80 0 0.0 2.0 0.00 0.00 0.00 53 1015.7
20260831223503 80 0 0.0 2.0 0.00 0.00 0.00 53 1015.7
20260831223003 81 0 0.0 3.0 0.00 0.00 0.00 53 1015.6
20260831222503 81 216 1.0 3.0 0.00 0.00 0.00 53 1015.5
20260831222004 81 0 0.0 2.0 0.00 0.00 0.00 53 1015.5
20260831221503 81 0 0.0 2.0 0.00 0.00 0.00 53 1015.5
20260831221003 81 0 0.0 2.0 0.00 0.00 0.00 53 1015.5
20260831220503 81 0 0.0 2.0 0.00 0.00 0.00 53 1015.4
20260831220004 81 0 0.0 2.0 0.00 0.00 0.00 53 1015.4
20260831215503 81 0 0.0 2.0 0.00 0.00 0.00 53 1015.6
20260831215004 81 0 0.0 2.0 0.00 0.00 0.00 53 1015.6
20260831214503 81 41 1.0 3.0 0.00 0.00 0.00 53 1015.6
20260831214003 81 26 1.0 4.0 0.00 0.00 0.00 53 1015.7
20260831213503 81 0 0.0 4.0 0.00 0.00 0.00 53 1015.7
20260831213003 81 37 2.0 4.0 0.00 0.00 0.00 52 1015.7
20260831212505 81 32 1.0 3.0 0.00 0.00 0.00 52 1015.7
20260831212003 81 33 1.0 3.0 0.00 0.00 0.00 52 1015.8
20260831211503 81 0 0.0 2.0 0.00 0.00 0.00 52 1015.7
20260831211003 81 0 0.0 2.0 0.00 0.00 0.00 51 1015.7
20260831210504 81 0 0.0 2.0 0.00 0.00 0.00 51 1015.7
20260831210003 81 0 0.0 3.0 0.00 0.00 0.00 51 1015.8
20260831205503 82 0 0.0 3.0 0.00 0.00 0.00 50 1015.8
20260831205004 82 63 1.0 3.0 0.00 0.00 0.00 50 1015.7
20260831204503 82 0 0.0 4.0 0.00 0.00 0.00 49 1015.8
20260831204003 82 344 1.0 4.0 0.00 0.00 0.00 49 1015.8
20260831203503 82 0 0.0 2.0 0.00 0.00 0.00 49 1015.9
20260831203003 82 0 0.0 2.0 0.00 0.00 0.00 49 1015.9
20260831202503 82 0 0.0 2.0 0.00 0.00 0.00 49 1015.9
20260831202003 83 0 0.0 2.0 0.00 0.00 0.00 50 1015.9
20260831201503 83 0 0.0 2.0 0.00 0.00 0.00 49 1015.8
20260831201003 83 0 0.0 2.0 0.00 0.00 0.00 49 1015.8
20260831200504 83 0 0.0 1.0 0.00 0.00 0.00 48 1015.6
20260831200003 83 0 0.0 2.0 0.00 0.00 0.00 48 1015.6
20260831195503 83 0 0.0 3.0 0.00 0.00 0.00 48 1015.6
20260831195003 83 0 0.0 4.0 0.00 0.00 0.00 49 1015.6
20260831194504 83 135 2.0 4.0 0.00 0.00 0.00 49 1015.5
20260831194004 83 135 3.0 4.0 0.00 0.00 0.00 48 1015.2
20260831193503 83 135 3.0 4.0 0.00 0.00 0.00 48 1015.2
20260831193003 83 132 2.0 5.0 0.00 0.00 0.00 48 1015.3
20260831192503 83 59 2.0 5.0 0.00 0.00 0.00 48 1015.2
20260831192003 83 1 2.0 5.0 0.00 0.00 0.00 49 1015.4
20260831191503 83 164 3.0 5.0 0.00 0.00 0.00 49 1015.3
20260831191003 83 0 0.0 5.0 0.00 0.00 0.00 49 1015.3
20260831190503 83 134 1.0 4.0 0.00 0.00 0.00 49 1015.3
20260831190003 83 83 2.0 4.0 0.00 0.00 0.00 49 1015.4
20260831185503 83 0 0.0 4.0 0.00 0.00 0.00 50 1015.4
20260831185004 83 135 1.0 4.0 0.00 0.00 0.00 50 1015.2
20260831184503 83 135 2.0 5.0 0.00 0.00 0.00 50 1015.2
20260831184003 83 0 0.0 5.0 0.00 0.00 0.00 50 1015.2
20260831183503 83 143 2.0 7.0 0.00 0.00 0.00 50 1015.2
20260831183004 83 145 2.0 7.0 0.00 0.00 0.00 50 1015.3
20260831182503 84 208 1.0 5.0 0.00 0.00 0.00 50 1015.2
20260831182003 84 0 0.0 7.0 0.00 0.00 0.00 51 1015.1
20260831181503 84 141 1.0 7.0 0.00 0.00 0.00 50 1015.1
20260831181004 84 0 0.0 4.0 0.00 0.00 0.00 50 1015.0
20260831180503 84 0 0.0 4.0 0.00 0.00 0.00 51 1015.1
20260831180004 84 0 0.0 4.0 0.00 0.00 0.00 51 1015.0
20260831175504 84 134 2.0 5.0 0.00 0.00 0.00 50 1014.9
20260831175003 84 0 0.0 5.0 0.00 0.00 0.00 50 1014.9
20260831174503 84 308 1.0 6.0 0.00 0.00 0.00 51 1014.9
20260831174003 84 315 1.0 6.0 0.00 0.00 0.00 50 1014.8
20260831173504 85 0 0.0 4.0 0.00 0.00 0.00 50 1014.7
20260831173004 85 301 2.0 6.0 0.00 0.00 0.00 50 1014.7
20260831172503 85 0 0.0 7.0 0.00 0.00 0.00 49 1014.7
20260831172003 85 294 2.0 7.0 0.00 0.00 0.00 49 1014.6
20260831171504 85 300 2.0 7.0 0.00 0.00 0.00 49 1014.5
20260831171004 85 286 2.0 5.0 0.00 0.00 0.00 48 1014.5
20260831170504 85 264 2.0 6.0 0.00 0.00 0.00 48 1014.5
20260831170003 85 184 1.0 6.0 0.00 0.00 0.00 48 1014.5
20260831165503 85 128 1.0 6.0 0.00 0.00 0.00 48 1014.4
20260831165004 86 0 0.0 7.0 0.00 0.00 0.00 48 1014.3
20260831164503 86 289 1.0 8.0 0.00 0.00 0.00 47 1014.4
20260831164003 86 234 4.0 8.0 0.00 0.00 0.00 47 1014.4
20260831163503 86 0 0.0 5.0 0.00 0.00 0.00 47 1014.3
20260831163004 86 345 1.0 7.0 0.00 0.00 0.00 47 1014.2
20260831162504 86 263 2.0 7.0 0.00 0.00 0.00 48 1014.2
20260831162004 86 269 2.0 7.0 0.00 0.00 0.00 48 1014.2
20260831161503 87 278 2.0 8.0 0.00 0.00 0.00 48 1014.2
20260831161003 87 240 2.0 8.0 0.00 0.00 0.00 48 1014.2
20260831160504 87 252 3.0 8.0 0.00 0.00 0.00 48 1014.2
20260831160004 87 279 3.0 8.0 0.00 0.00 0.00 48 1014.2
20260831155503 87 238 1.0 8.0 0.00 0.00 0.00 47 1014.2
20260831155003 88 251 2.0 8.0 0.00 0.00 0.00 47 1014.2
20260831154503 88 272 4.0 9.0 0.00 0.00 0.00 46 1014.3
20260831154003 89 307 4.0 9.0 0.00 0.00 0.00 44 1014.2
20260831153504 89 311 3.0 7.0 0.00 0.00 0.00 44 1014.3
20260831153003 90 248 1.0 8.0 0.00 0.00 0.00 44 1014.4
20260831152503 90 251 4.0 8.0 0.00 0.00 0.00 43 1014.4
20260831152003 91 281 4.0 8.0 0.00 0.00 0.00 42 1014.4
20260831151503 92 281 3.0 8.0 0.00 0.00 0.00 40 1014.4
20260831151004 92 150 2.0 8.0 0.00 0.00 0.00 39 1014.3
20260831150504 92 153 2.0 5.0 0.00 0.00 0.00 39 1014.2
20260831150003 92 266 2.0 7.0 0.00 0.00 0.00 39 1014.4
20260831145503 92 277 2.0 10.0 0.00 0.00 0.00 39 1014.3
20260831145003 92 281 2.0 10.0 0.00 0.00 0.00 38 1014.2
20260831144504 93 260 4.0 9.0 0.00 0.00 0.00 36 1014.2
20260831144003 93 231 4.0 9.0 0.00 0.00 0.00 36 1014.2
20260831143503 93 256 4.0 10.0 0.00 0.00 0.00 36 1014.2
20260831143004 94 279 4.0 11.0 0.00 0.00 0.00 35 1014.3
20260831142503 94 296 2.0 11.0 0.00 0.00 0.00 34 1014.4
20260831142004 94 268 5.0 10.0 0.00 0.00 0.00 34 1014.4
20260831141503 95 266 4.0 10.0 0.00 0.00 0.00 33 1014.4
20260831141003 95 276 4.0 8.0 0.00 0.00 0.00 33 1014.4
20260831140504 95 278 3.0 7.0 0.00 0.00 0.00 31 1014.5
20260831140003 95 302 3.0 9.0 0.00 0.00 0.00 31 1014.5
20260831135503 95 279 5.0 9.0 0.00 0.00 0.00 30 1014.6
20260831135003 96 270 3.0 9.0 0.00 0.00 0.00 31 1014.5
20260831134503 96 271 2.0 8.0 0.00 0.00 0.00 29 1014.6
20260831134004 96 294 2.0 9.0 0.00 0.00 0.00 30 1014.7
20260831133504 95 295 3.0 9.0 0.00 0.00 0.00 29 1014.7
20260831133003 96 236 3.0 7.0 0.00 0.00 0.00 30 1014.8
20260831132503 95 285 2.0 9.0 0.00 0.00 0.00 31 1014.8
20260831132004 94 299 4.0 10.0 0.00 0.00 0.00 31 1014.8
20260831131503 95 298 4.0 11.0 0.00 0.00 0.00 30 1014.8
20260831131004 95 305 4.0 11.0 0.00 0.00 0.00 30 1014.8
20260831130503 95 298 4.0 11.0 0.00 0.00 0.00 30 1015.0
20260831130003 95 264 4.0 11.0 0.00 0.00 0.00 30 1014.9
20260831125504 95 291 5.0 8.0 0.00 0.00 0.00 28 1014.9
20260831125003 95 321 4.0 8.0 0.00 0.00 0.00 29 1015.0
20260831124503 95 313 4.0 11.0 0.00 0.00 0.00 29 1015.0
20260831124003 94 282 2.0 11.0 0.00 0.00 0.00 29 1015.1
20260831123504 95 283 4.0 11.0 0.00 0.00 0.00 30 1015.2
20260831123004 95 301 1.0 9.0 0.00 0.00 0.00 30 1015.3
20260831122503 96 309 3.0 9.0 0.00 0.00 0.00 29 1015.4
20260831122003 96 25 1.0 6.0 0.00 0.00 0.00 29 1015.4
20260831121503 96 68 2.0 5.0 0.00 0.00 0.00 29 1015.5
20260831121004 96 13 2.0 5.0 0.00 0.00 0.00 28 1015.5
20260831120503 96 318 1.0 7.0 0.00 0.00 0.00 28 1015.7
20260831120003 95 0 0.0 8.0 0.00 0.00 0.00 30 1015.7
20260831115503 94 258 2.0 10.0 0.00 0.00 0.00 31 1015.8
20260831115004 93 257 2.0 10.0 0.00 0.00 0.00 31 1015.8
20260831114503 93 269 5.0 10.0 0.00 0.00 0.00 31 1015.9
20260831114003 93 286 3.0 11.0 0.00 0.00 0.00 33 1015.9
20260831113504 93 292 4.0 12.0 0.00 0.00 0.00 31 1016.0
20260831113004 93 303 4.0 12.0 0.00 0.00 0.00 32 1015.9
20260831112503 93 308 4.0 9.0 0.00 0.00 0.00 33 1016.0
20260831112003 93 281 3.0 8.0 0.00 0.00 0.00 33 1016.0
20260831111503 94 290 4.0 8.0 0.00 0.00 0.00 33 1016.0
20260831111004 94 283 3.0 8.0 0.00 0.00 0.00 33 1016.1
20260831110503 93 254 2.0 9.0 0.00 0.00 0.00 34 1016.0
20260831110003 93 290 2.0 9.0 0.00 0.00 0.00 35 1016.2
20260831105503 93 316 3.0 8.0 0.00 0.00 0.00 34 1016.2
20260831105004 94 312 4.0 8.0 0.00 0.00 0.00 33 1016.2
20260831104504 94 325 2.0 11.0 0.00 0.00 0.00 32 1016.2
20260831104003 94 315 2.0 11.0 0.00 0.00 0.00 34 1016.2
20260831103503 93 266 2.0 11.0 0.00 0.00 0.00 35 1016.2
20260831103004 92 252 2.0 11.0 0.00 0.00 0.00 36 1016.2
20260831102503 93 231 2.0 8.0 0.00 0.00 0.00 34 1016.2
20260831102003 94 285 2.0 9.0 0.00 0.00 0.00 34 1016.2
20260831101503 94 304 3.0 9.0 0.00 0.00 0.00 34 1016.2
20260831101004 94 107 2.0 9.0 0.00 0.00 0.00 34 1016.4
20260831100504 93 142 2.0 9.0 0.00 0.00 0.00 35 1016.4
20260831100003 93 265 2.0 7.0 0.00 0.00 0.00 35 1016.5
20260831095503 93 263 2.0 8.0 0.00 0.00 0.00 36 1016.5
20260831095003 93 224 2.0 8.0 0.00 0.00 0.00 36 1016.6
20260831094504 93 222 2.0 8.0 0.00 0.00 0.00 37 1016.7
20260831094003 93 301 1.0 7.0 0.00 0.00 0.00 40 1016.7
20260831093503 91 0 0.0 8.0 0.00 0.00 0.00 43 1016.7
20260831093004 91 250 4.0 8.0 0.00 0.00 0.00 42 1016.8
20260831092503 91 253 2.0 8.0 0.00 0.00 0.00 43 1016.8
20260831092004 91 256 1.0 11.0 0.00 0.00 0.00 44 1016.8
20260831091504 91 257 4.0 11.0 0.00 0.00 0.00 43 1016.8
20260831091003 92 262 4.0 8.0 0.00 0.00 0.00 41 1016.8
20260831090503 91 277 4.0 8.0 0.00 0.00 0.00 41 1016.9
20260831090003 92 297 4.0 9.0 0.00 0.00 0.00 39 1016.9
20260831085504 92 314 2.0 9.0 0.00 0.00 0.00 40 1016.9
20260831085003 92 290 3.0 6.0 0.00 0.00 0.00 38 1016.9
20260831084503 91 222 2.0 8.0 0.00 0.00 0.00 40 1016.9
20260831084003 91 239 2.0 8.0 0.00 0.00 0.00 39 1017.0
20260831083504 90 259 2.0 8.0 0.00 0.00 0.00 39 1017.0
20260831083003 90 238 3.0 8.0 0.00 0.00 0.00 39 1016.9
20260831082503 91 127 4.0 8.0 0.00 0.00 0.00 38 1016.9
20260831082004 90 136 2.0 8.0 0.00 0.00 0.00 37 1016.9
20260831081503 90 230 2.0 8.0 0.00 0.00 0.00 38 1017.0
20260831081003 90 204 2.0 7.0 0.00 0.00 0.00 38 1016.9
20260831080504 90 142 1.0 5.0 0.00 0.00 0.00 38 1016.9
20260831080003 90 148 1.0 5.0 0.00 0.00 0.00 38 1017.0
20260831075504 90 139 2.0 8.0 0.00 0.00 0.00 40 1017.0
20260831075003 89 0 0.0 8.0 0.00 0.00 0.00 41 1017.0
20260831074503 88 0 0.0 5.0 0.00 0.00 0.00 42 1017.0
20260831074004 88 295 3.0 5.0 0.00 0.00 0.00 43 1017.0
20260831073504 87 192 2.0 5.0 0.00 0.00 0.00 44 1016.9
20260831073003 87 138 3.0 5.0 0.00 0.00 0.00 43 1017.0
20260831072503 86 131 1.0 6.0 0.00 0.00 0.00 43 1016.7
20260831072004 86 139 2.0 6.0 0.00 0.00 0.00 42 1016.9
20260831071503 86 153 3.0 6.0 0.00 0.00 0.00 43 1016.9
20260831071003 86 145 3.0 6.0 0.00 0.00 0.00 43 1016.8
20260831070503 86 0 0.0 5.0 0.00 0.00 0.00 44 1017.0
20260831070004 86 138 1.0 5.0 0.00 0.00 0.00 45 1017.0
20260831065504 86 135 2.0 4.0 0.00 0.00 0.00 46 1016.9
20260831065003 85 53 2.0 4.0 0.00 0.00 0.00 47 1016.9
20260831064503 84 0 0.0 3.0 0.00 0.00 0.00 48 1016.8
20260831064004 84 0 0.0 4.0 0.00 0.00 0.00 48 1016.9
20260831063503 84 155 2.0 5.0 0.00 0.00 0.00 49 1016.9
20260831063003 83 142 1.0 7.0 0.00 0.00 0.00 50 1016.9
20260831062503 83 140 2.0 7.0 0.00 0.00 0.00 50 1016.8
20260831062004 83 112 2.0 8.0 0.00 0.00 0.00 53 1016.9
20260831061503 83 129 2.0 8.0 0.00 0.00 0.00 55 1016.9
20260831061004 83 139 2.0 8.0 0.00 0.00 0.00 56 1016.9
20260831060503 83 135 2.0 8.0 0.00 0.00 0.00 55 1016.9
20260831060003 83 134 3.0 8.0 0.00 0.00 0.00 54 1016.9
20260831055503 83 139 3.0 8.0 0.00 0.00 0.00 53 1016.9
20260831055003 83 147 4.0 8.0 0.00 0.00 0.00 52 1016.7
20260831054504 83 139 2.0 4.0 0.00 0.00 0.00 51 1016.7
20260831054004 83 151 2.0 4.0 0.00 0.00 0.00 50 1016.6
20260831053503 83 155 2.0 4.0 0.00 0.00 0.00 49 1016.6
20260831053003 83 135 2.0 4.0 0.00 0.00 0.00 49 1016.6
20260831052503 83 126 2.0 4.0 0.00 0.00 0.00 48 1016.5
20260831052004 83 118 2.0 3.0 0.00 0.00 0.00 47 1016.5
20260831051503 83 0 0.0 2.0 0.00 0.00 0.00 47 1016.4
20260831051003 82 0 0.0 2.0 0.00 0.00 0.00 47 1016.5
20260831050503 82 0 0.0 1.0 0.00 0.00 0.00 47 1016.4
20260831050004 82 0 0.0 2.0 0.00 0.00 0.00 48 1016.3
20260831045503 81 0 0.0 2.0 0.00 0.00 0.00 48 1016.3
20260831045004 81 39 1.0 2.0 0.00 0.00 0.00 48 1016.3
20260831044503 80 0 0.0 2.0 0.00 0.00 0.00 48 1016.2
20260831044004 80 60 1.0 2.0 0.00 0.00 0.00 48 1016.3
20260831043503 80 0 0.0 2.0 0.00 0.00 0.00 50 1016.3
20260831043004 79 0 0.0 2.0 0.00 0.00 0.00 52 1016.2
20260831042503 79 0 0.0 2.0 0.00 0.00 0.00 54 1016.2
20260831042004 79 0 0.0 3.0 0.00 0.00 0.00 55 1016.2
20260831041503 79 327 1.0 3.0 0.00 0.00 0.00 57 1016.2
20260831041003 79 0 0.0 3.0 0.00 0.00 0.00 57 1016.2
20260831040504 79 158 1.0 3.0 0.00 0.00 0.00 57 1016.1
20260831040004 79 0 0.0 2.0 0.00 0.00 0.00 57 1016.1
20260831035504 78 0 0.0 3.0 0.00 0.00 0.00 57 1016.0
20260831035004 78 0 0.0 3.0 0.00 0.00 0.00 57 1016.1
20260831034503 78 0 0.0 2.0 0.00 0.00 0.00 57 1016.0
20260831034004 78 58 1.0 3.0 0.00 0.00 0.00 57 1016.0
20260831033503 79 0 0.0 3.0 0.00 0.00 0.00 58 1016.0
20260831033003 79 30 1.0 3.0 0.00 0.00 0.00 58 1016.1
20260831032503 79 0 0.0 3.0 0.00 0.00 0.00 58 1016.2
20260831032004 79 0 0.0 3.0 0.00 0.00 0.00 58 1016.2
20260831031503 79 0 0.0 4.0 0.00 0.00 0.00 58 1016.2
20260831031003 78 0 0.0 4.0 0.00 0.00 0.00 57 1016.2
20260831030504 78 0 0.0 3.0 0.00 0.00 0.00 58 1016.2
20260831030004 78 103 1.0 3.0 0.00 0.00 0.00 58 1016.2
20260831025503 78 0 0.0 3.0 0.00 0.00 0.00 58 1016.2
20260831025003 78 0 0.0 4.0 0.00 0.00 0.00 57 1016.2
20260831024504 78 0 0.0 4.0 0.00 0.00 0.00 57 1016.2
20260831024004 78 28 1.0 4.0 0.00 0.00 0.00 60 1016.2
20260831023503 78 35 2.0 4.0 0.00 0.00 0.00 60 1016.3
20260831023003 78 30 3.0 4.0 0.00 0.00 0.00 60 1016.2
20260831022503 78 36 2.0 4.0 0.00 0.00 0.00 61 1016.3
20260831022004 78 0 0.0 4.0 0.00 0.00 0.00 61 1016.3
20260831021504 78 0 0.0 4.0 0.00 0.00 0.00 61 1016.4
20260831021003 78 0 0.0 4.0 0.00 0.00 0.00 61 1016.5
20260831020503 78 0 0.0 4.0 0.00 0.00 0.00 61 1016.5
20260831020004 78 6 1.0 4.0 0.00 0.00 0.00 61 1016.4
20260831015504 78 342 1.0 3.0 0.00 0.00 0.00 60 1016.4
20260831015003 78 0 0.0 3.0 0.00 0.00 0.00 60 1016.4